カタログに戻る

STARLINK-38159

運用中通信SSO
NORAD 100186·PAYLOAD·🇺🇸 United States

打ち上げ Aug 1, 2026 から Vandenberg Space Force Base

Loading…

次のパス (今後24時間)

TLE

最新Source: Space-Track

元期: Sep 14, 2026, 11:55 UTC

1 A0186U 26175H   26257.49702377  .00200384  00000-0  13102-2 0  9993
2 A0186  97.2847  99.6733 0001352 152.5651 207.5686 15.75240938  8238

AllMySatでSTARLINK-38159をリアルタイム追跡

Download on the App Store